Time,TemperatureF,DewpointF,PressureIn,WindDirection,WindDirectionDegrees,WindSpeedMPH,WindSpeedGustMPH,Humidity,HourlyPrecipIn,Conditions,Clouds,dailyrainin,SoftwareType,DateUTC
2013-01-19 00:02:00,31.8,31.3,0.00,ENE,68,0.0,0.0,98,0.00,,---,0.00,VWS V14.01,2013-01-19 08:02:00,
2013-01-19 00:07:00,31.8,31.3,0.00,NE,38,0.0,0.0,98,0.00,,---,0.00,VWS V14.01,2013-01-19 08:07:00,
2013-01-19 00:12:00,31.8,31.3,0.00,NE,38,0.0,0.0,98,0.00,,---,0.00,VWS V14.01,2013-01-19 08:12:00,
2013-01-19 00:17:00,31.8,31.3,0.00,ENE,77,0.0,0.0,98,0.00,,---,0.00,VWS V14.01,2013-01-19 08:17:00,
2013-01-19 00:22:00,31.8,31.3,0.00,ENE,77,0.0,0.0,98,0.00,,---,0.00,VWS V14.01,2013-01-19 08:22:00,
2013-01-19 00:27:00,31.8,31.3,0.00,ENE,78,0.0,0.0,98,0.00,,---,0.00,VWS V14.01,2013-01-19 08:27:00,
2013-01-19 00:32:00,31.8,31.3,0.00,ENE,65,3.6,3.6,98,0.00,,---,0.00,VWS V14.01,2013-01-19 08:32:00,
2013-01-19 00:37:00,31.8,31.3,0.00,ENE,63,0.0,0.0,98,0.00,,---,0.00,VWS V14.01,2013-01-19 08:37:00,
2013-01-19 00:42:00,31.8,31.3,0.00,NNE,24,0.0,0.0,98,0.00,,---,0.00,VWS V14.01,2013-01-19 08:42:00,
2013-01-19 00:47:00,31.8,31.3,0.00,NNE,17,0.0,0.0,98,0.00,,---,0.00,VWS V14.01,2013-01-19 08:47:00,
2013-01-19 00:52:00,31.5,31.0,0.00,NE,43,0.0,0.0,98,0.00,,---,0.00,VWS V14.01,2013-01-19 08:52:00,
2013-01-19 00:57:00,31.5,31.0,0.00,NE,43,0.0,0.0,98,0.00,,---,0.00,VWS V14.01,2013-01-19 08:57:00,
2013-01-19 01:02:00,31.5,31.0,0.00,East,84,0.0,0.0,98,0.00,,---,0.00,VWS V14.01,2013-01-19 09:02:00,
2013-01-19 01:07:00,31.5,31.0,0.00,East,84,0.0,0.0,98,0.00,,---,0.00,VWS V14.01,2013-01-19 09:07:00,
2013-01-19 01:12:00,31.3,30.8,0.00,East,84,0.0,0.0,98,0.00,,---,0.00,VWS V14.01,2013-01-19 09:12:00,
2013-01-19 01:17:00,31.3,30.8,0.00,East,92,2.7,2.7,98,0.00,,---,0.00,VWS V14.01,2013-01-19 09:17:00,
2013-01-19 01:22:00,31.3,30.8,0.00,East,92,0.0,0.0,98,0.00,,---,0.00,VWS V14.01,2013-01-19 09:22:00,
2013-01-19 01:27:00,31.1,30.6,0.00,NE,46,0.0,3.6,98,0.00,,---,0.00,VWS V14.01,2013-01-19 09:27:00,
2013-01-19 01:32:00,31.1,30.6,0.00,NNE,32,0.0,0.0,98,0.00,,---,0.00,VWS V14.01,2013-01-19 09:32:00,
2013-01-19 01:37:00,31.1,30.6,0.00,NNE,32,0.0,0.0,98,0.00,,---,0.00,VWS V14.01,2013-01-19 09:37:00,
2013-01-19 01:42:00,31.1,30.6,0.00,ENE,62,3.1,3.1,98,0.00,,---,0.00,VWS V14.01,2013-01-19 09:42:00,
2013-01-19 01:47:00,31.1,30.6,0.00,ENE,62,3.1,3.1,98,0.00,,---,0.00,VWS V14.01,2013-01-19 09:47:00,
2013-01-19 01:52:00,31.1,30.6,0.00,NNE,33,0.0,0.0,98,0.00,,---,0.00,VWS V14.01,2013-01-19 09:52:00,
2013-01-19 01:57:00,31.1,30.6,0.00,East,79,3.1,3.1,98,0.00,,---,0.00,VWS V14.01,2013-01-19 09:57:00,
2013-01-19 02:02:00,31.1,30.6,0.00,East,79,0.0,0.0,98,0.00,,---,0.00,VWS V14.01,2013-01-19 10:02:00,
2013-01-19 02:07:00,31.1,30.6,0.00,East,79,0.0,0.0,98,0.00,,---,0.00,VWS V14.01,2013-01-19 10:07:00,
2013-01-19 02:12:00,31.1,30.6,0.00,East,79,0.0,0.0,98,0.00,,---,0.00,VWS V14.01,2013-01-19 10:12:00,
2013-01-19 02:17:00,31.1,30.6,0.00,East,79,0.0,0.0,98,0.00,,---,0.00,VWS V14.01,2013-01-19 10:17:00,
2013-01-19 02:22:00,31.1,30.6,0.00,East,79,0.0,0.0,98,0.00,,---,0.00,VWS V14.01,2013-01-19 10:22:00,
2013-01-19 02:27:00,31.1,30.6,0.00,East,79,0.0,0.0,98,0.00,,---,0.00,VWS V14.01,2013-01-19 10:27:00,
2013-01-19 02:32:00,31.1,30.6,0.00,East,79,0.0,0.0,98,0.00,,---,0.00,VWS V14.01,2013-01-19 10:32:00,
2013-01-19 02:37:00,31.1,30.6,0.00,East,79,0.0,0.0,98,0.00,,---,0.00,VWS V14.01,2013-01-19 10:37:00,
2013-01-19 02:42:00,31.1,30.6,0.00,East,79,0.0,0.0,98,0.00,,---,0.00,VWS V14.01,2013-01-19 10:42:00,
2013-01-19 02:47:00,31.1,30.6,0.00,East,79,0.0,0.0,98,0.00,,---,0.00,VWS V14.01,2013-01-19 10:47:00,
2013-01-19 02:52:00,31.1,30.6,0.00,East,79,0.0,0.0,98,0.00,,---,0.00,VWS V14.01,2013-01-19 10:52:00,
2013-01-19 02:57:00,31.1,30.6,0.00,East,79,0.0,0.0,98,0.00,,---,0.00,VWS V14.01,2013-01-19 10:57:00,
2013-01-19 03:02:00,31.1,30.6,0.00,East,79,0.0,0.0,98,0.00,,---,0.00,VWS V14.01,2013-01-19 11:02:00,
2013-01-19 03:07:00,31.1,30.6,0.00,East,79,0.0,0.0,98,0.00,,---,0.00,VWS V14.01,2013-01-19 11:07:00,
2013-01-19 03:12:00,31.1,30.6,0.00,East,79,0.0,0.0,98,0.00,,---,0.00,VWS V14.01,2013-01-19 11:12:00,
2013-01-19 04:47:00,30.7,30.2,0.00,East,79,0.0,0.0,98,0.00,,---,0.00,VWS V14.01,2013-01-19 12:47:00,
2013-01-19 04:48:00,30.7,30.2,0.00,East,79,0.0,0.0,98,0.00,,---,0.00,VWS V14.01,2013-01-19 12:48:00,
2013-01-19 04:53:00,30.6,30.1,0.00,ENE,78,0.0,0.0,98,0.00,,---,0.00,VWS V14.01,2013-01-19 12:53:00,
2013-01-19 04:58:00,30.6,30.1,0.00,ENE,78,0.0,0.0,98,0.00,,---,0.00,VWS V14.01,2013-01-19 12:58:00,
2013-01-19 05:03:00,30.7,30.2,0.00,ENE,78,0.0,0.0,98,0.00,,---,0.00,VWS V14.01,2013-01-19 13:03:00,
2013-01-19 05:08:00,30.6,30.1,0.00,ENE,78,0.0,0.0,98,0.00,,---,0.00,VWS V14.01,2013-01-19 13:08:00,
2013-01-19 05:13:00,30.6,30.1,0.00,ENE,70,3.6,3.6,98,0.00,,---,0.00,VWS V14.01,2013-01-19 13:13:00,
2013-01-19 05:18:00,30.6,30.1,0.00,ENE,76,0.0,0.0,98,0.00,,---,0.00,VWS V14.01,2013-01-19 13:18:00,
2013-01-19 05:23:00,30.4,29.9,0.00,ENE,76,0.0,0.0,98,0.00,,---,0.00,VWS V14.01,2013-01-19 13:23:00,
2013-01-19 05:28:00,30.4,29.9,0.00,ENE,76,0.0,0.0,98,0.00,,---,0.00,VWS V14.01,2013-01-19 13:28:00,
2013-01-19 05:33:00,30.2,29.7,0.00,NNE,33,0.0,0.0,98,0.00,,---,0.00,VWS V14.01,2013-01-19 13:33:00,
2013-01-19 05:38:00,30.2,29.7,0.00,ENE,66,2.2,2.2,98,0.00,,---,0.00,VWS V14.01,2013-01-19 13:38:00,
2013-01-19 05:43:00,30.2,29.7,0.00,ENE,70,0.0,0.0,98,0.00,,---,0.00,VWS V14.01,2013-01-19 13:43:00,
2013-01-19 05:48:00,30.2,29.7,0.00,ENE,70,0.0,0.0,98,0.00,,---,0.00,VWS V14.01,2013-01-19 13:48:00,
2013-01-19 05:53:00,30.2,29.7,0.00,ENE,73,0.0,0.0,98,0.00,,---,0.00,VWS V14.01,2013-01-19 13:53:00,
2013-01-19 05:58:00,30.0,29.5,0.00,NE,43,0.0,0.0,98,0.00,,---,0.00,VWS V14.01,2013-01-19 13:58:00,
2013-01-19 06:03:00,30.0,29.5,0.00,NE,43,0.0,0.0,98,0.00,,---,0.00,VWS V14.01,2013-01-19 14:03:00,
2013-01-19 06:08:00,30.0,29.5,0.00,NE,43,0.0,0.0,98,0.00,,---,0.00,VWS V14.01,2013-01-19 14:08:00,
2013-01-19 06:13:00,30.0,29.5,0.00,NE,43,0.0,0.0,98,0.00,,---,0.00,VWS V14.01,2013-01-19 14:13:00,
2013-01-19 06:18:00,30.0,29.5,0.00,East,81,0.0,0.0,98,0.00,,---,0.00,VWS V14.01,2013-01-19 14:18:00,
2013-01-19 06:23:00,30.2,29.7,0.00,East,81,0.0,0.0,98,0.00,,---,0.00,VWS V14.01,2013-01-19 14:23:00,
2013-01-19 06:28:00,30.2,29.7,0.00,East,81,0.0,0.0,98,0.00,,---,0.00,VWS V14.01,2013-01-19 14:28:00,
2013-01-19 06:33:00,30.2,29.7,0.00,ENE,70,0.0,0.0,98,0.00,,---,0.00,VWS V14.01,2013-01-19 14:33:00,
2013-01-19 06:38:00,30.0,29.5,0.00,ENE,70,0.0,0.0,98,0.00,,---,0.00,VWS V14.01,2013-01-19 14:38:00,
2013-01-19 06:43:00,30.0,29.5,0.00,ENE,70,0.0,0.0,98,0.00,,---,0.00,VWS V14.01,2013-01-19 14:43:00,
2013-01-19 06:48:00,29.8,29.3,0.00,ENE,70,0.0,0.0,98,0.00,,---,0.00,VWS V14.01,2013-01-19 14:48:00,
2013-01-19 06:53:00,29.8,29.3,0.00,ENE,70,0.0,0.0,98,0.00,,---,0.00,VWS V14.01,2013-01-19 14:53:00,
2013-01-19 06:58:00,29.8,29.3,0.00,ENE,70,0.0,0.0,98,0.00,,---,0.00,VWS V14.01,2013-01-19 14:58:00,
2013-01-19 07:03:00,29.8,29.3,0.00,ENE,70,0.0,0.0,98,0.00,,---,0.00,VWS V14.01,2013-01-19 15:03:00,
2013-01-19 07:08:00,29.8,29.3,0.00,ENE,70,0.0,0.0,98,0.00,,---,0.00,VWS V14.01,2013-01-19 15:08:00,
2013-01-19 07:13:00,29.7,29.2,0.00,ENE,70,0.0,0.0,98,0.00,,---,0.00,VWS V14.01,2013-01-19 15:13:00,
2013-01-19 07:18:00,29.7,29.2,0.00,ENE,70,0.0,0.0,98,0.00,,---,0.00,VWS V14.01,2013-01-19 15:18:00,
2013-01-19 07:23:00,29.7,29.2,0.00,ENE,70,0.0,0.0,98,0.00,,---,0.00,VWS V14.01,2013-01-19 15:23:00,
2013-01-19 07:28:00,29.5,29.0,0.00,ENE,70,0.0,0.0,98,0.00,,---,0.00,VWS V14.01,2013-01-19 15:28:00,
2013-01-19 07:33:00,29.5,29.0,0.00,ENE,73,0.0,0.0,98,0.00,,---,0.00,VWS V14.01,2013-01-19 15:33:00,
2013-01-19 07:38:00,29.5,29.0,0.00,ENE,73,0.0,0.0,98,0.00,,---,0.00,VWS V14.01,2013-01-19 15:38:00,
2013-01-19 07:43:00,29.5,29.0,0.00,ENE,74,0.0,0.0,98,0.00,,---,0.00,VWS V14.01,2013-01-19 15:43:00,
2013-01-19 07:48:00,29.5,29.0,0.00,ENE,74,0.0,0.0,98,0.00,,---,0.00,VWS V14.01,2013-01-19 15:48:00,
2013-01-19 07:53:00,29.5,29.0,0.00,ENE,75,2.7,2.7,98,0.00,,---,0.00,VWS V14.01,2013-01-19 15:53:00,
2013-01-19 07:58:00,29.3,28.8,0.00,ENE,68,0.0,0.0,98,0.00,,---,0.00,VWS V14.01,2013-01-19 15:58:00,
2013-01-19 08:03:00,29.3,28.8,0.00,ENE,76,0.0,0.0,98,0.00,,---,0.00,VWS V14.01,2013-01-19 16:03:00,
2013-01-19 08:08:00,29.1,28.6,0.00,ENE,76,0.0,0.0,98,0.00,,---,0.00,VWS V14.01,2013-01-19 16:08:00,
2013-01-19 08:13:00,28.9,28.5,0.00,ENE,76,0.0,0.0,98,0.00,,---,0.00,VWS V14.01,2013-01-19 16:13:00,
2013-01-19 08:18:00,28.9,28.5,0.00,ENE,76,0.0,0.0,98,0.00,,---,0.00,VWS V14.01,2013-01-19 16:18:00,
2013-01-19 08:23:00,28.9,28.5,0.00,ENE,76,0.0,0.0,98,0.00,,---,0.00,VWS V14.01,2013-01-19 16:23:00,
2013-01-19 08:28:00,28.9,28.5,0.00,ENE,73,0.0,2.7,98,0.00,,---,0.00,VWS V14.01,2013-01-19 16:28:00,
2013-01-19 08:33:00,29.1,28.6,0.00,ENE,73,0.0,0.0,98,0.00,,---,0.00,VWS V14.01,2013-01-19 16:33:00,
2013-01-19 08:38:00,29.1,28.6,0.00,ENE,73,0.0,0.0,98,0.00,,---,0.00,VWS V14.01,2013-01-19 16:38:00,
2013-01-19 08:43:00,29.1,28.6,0.00,ENE,74,0.0,0.0,98,0.00,,---,0.00,VWS V14.01,2013-01-19 16:43:00,
2013-01-19 08:48:00,29.1,28.6,0.00,ENE,73,0.0,0.0,98,0.00,,---,0.00,VWS V14.01,2013-01-19 16:48:00,
2013-01-19 08:53:00,29.1,28.6,0.00,NNE,16,0.0,0.0,98,0.00,,---,0.00,VWS V14.01,2013-01-19 16:53:00,
2013-01-19 08:58:00,29.3,28.8,0.00,NNE,16,0.0,0.0,98,0.00,,---,0.00,VWS V14.01,2013-01-19 16:58:00,
2013-01-19 09:03:00,29.3,28.8,0.00,East,88,0.0,0.0,98,0.00,,---,0.00,VWS V14.01,2013-01-19 17:03:00,
2013-01-19 09:08:00,29.3,28.8,0.00,East,88,0.0,0.0,98,0.00,,---,0.00,VWS V14.01,2013-01-19 17:08:00,
2013-01-19 09:13:00,29.1,28.6,0.00,East,88,0.0,0.0,98,0.00,,---,0.00,VWS V14.01,2013-01-19 17:13:00,
2013-01-19 09:18:00,29.1,28.6,0.00,East,88,0.0,0.0,98,0.00,,---,0.00,VWS V14.01,2013-01-19 17:18:00,
2013-01-19 09:23:00,29.3,28.8,0.00,ENE,60,2.2,2.2,98,0.00,,---,0.00,VWS V14.01,2013-01-19 17:23:00,
2013-01-19 09:28:00,29.3,28.8,0.00,ENE,76,0.0,0.0,98,0.00,,---,0.00,VWS V14.01,2013-01-19 17:28:00,
2013-01-19 09:33:00,29.5,29.0,0.00,NE,37,0.0,0.0,98,0.00,,---,0.00,VWS V14.01,2013-01-19 17:33:00,
2013-01-19 09:38:00,29.5,29.0,0.00,NE,41,0.0,0.0,98,0.00,,---,0.00,VWS V14.01,2013-01-19 17:38:00,
2013-01-19 09:43:00,29.5,29.0,0.00,NE,42,0.0,0.0,98,0.00,,---,0.00,VWS V14.01,2013-01-19 17:43:00,
2013-01-19 09:48:00,29.5,29.0,0.00,NE,44,0.0,0.0,98,0.00,,---,0.00,VWS V14.01,2013-01-19 17:48:00,
2013-01-19 09:53:00,29.5,29.0,0.00,NE,50,0.0,0.0,98,0.00,,---,0.00,VWS V14.01,2013-01-19 17:53:00,
2013-01-19 09:58:00,29.5,29.0,0.00,NE,50,0.0,0.0,98,0.00,,---,0.00,VWS V14.01,2013-01-19 17:58:00,
2013-01-19 10:03:00,29.5,29.0,0.00,NE,50,0.0,0.0,98,0.00,,---,0.00,VWS V14.01,2013-01-19 18:03:00,
2013-01-19 10:09:00,29.5,29.0,0.00,NE,50,0.0,0.0,98,0.00,,---,0.00,VWS V14.01,2013-01-19 18:09:00,
2013-01-19 10:14:00,29.5,29.0,0.00,NE,50,0.0,0.0,98,0.00,,---,0.00,VWS V14.01,2013-01-19 18:14:00,
2013-01-19 10:19:00,29.7,29.2,0.00,NNE,33,0.0,0.0,98,0.00,,---,0.00,VWS V14.01,2013-01-19 18:19:00,
2013-01-19 10:24:00,29.7,29.2,0.00,ENE,76,0.0,0.0,98,0.00,,---,0.00,VWS V14.01,2013-01-19 18:24:00,
2013-01-19 10:29:00,29.7,29.2,0.00,ENE,76,0.0,0.0,98,0.00,,---,0.00,VWS V14.01,2013-01-19 18:29:00,
2013-01-19 10:34:00,29.7,29.2,0.00,ENE,76,0.0,0.0,98,0.00,,---,0.00,VWS V14.01,2013-01-19 18:34:00,
2013-01-19 10:39:00,29.8,29.3,0.00,ENE,76,0.0,0.0,98,0.00,,---,0.00,VWS V14.01,2013-01-19 18:39:00,
2013-01-19 10:45:00,29.8,29.3,0.00,ENE,76,0.0,0.0,98,0.00,,---,0.00,VWS V14.01,2013-01-19 18:45:00,
2013-01-19 10:50:00,29.8,29.3,0.00,ENE,76,0.0,0.0,98,0.00,,---,0.00,VWS V14.01,2013-01-19 18:50:00,
2013-01-19 10:55:00,29.8,29.3,0.00,ENE,76,0.0,0.0,98,0.00,,---,0.00,VWS V14.01,2013-01-19 18:55:00,
2013-01-19 11:00:00,29.8,29.3,0.00,ENE,76,0.0,0.0,98,0.00,,---,0.00,VWS V14.01,2013-01-19 19:00:00,
2013-01-19 11:06:00,30.2,29.7,0.00,NNE,17,0.0,0.0,98,0.00,,---,0.00,VWS V14.01,2013-01-19 19:06:00,
2013-01-19 11:11:00,30.4,29.9,0.00,NNE,17,0.0,0.0,98,0.00,,---,0.00,VWS V14.01,2013-01-19 19:11:00,
2013-01-19 11:16:00,30.4,29.9,0.00,NE,36,0.0,0.0,98,0.00,,---,0.00,VWS V14.01,2013-01-19 19:16:00,
2013-01-19 11:21:00,30.6,30.1,0.00,NE,36,0.0,0.0,98,0.00,,---,0.00,VWS V14.01,2013-01-19 19:21:00,
2013-01-19 11:27:00,30.6,30.1,0.00,NE,48,0.0,0.0,98,0.00,,---,0.00,VWS V14.01,2013-01-19 19:27:00,
2013-01-19 11:31:00,30.7,30.2,0.00,NE,48,0.0,0.0,98,0.00,,---,0.00,VWS V14.01,2013-01-19 19:31:00,
2013-01-19 11:36:00,30.9,30.4,0.00,NW,310,0.0,0.0,98,0.00,,---,0.00,VWS V14.01,2013-01-19 19:36:00,
2013-01-19 11:41:00,30.9,30.4,0.00,WNW,293,0.0,0.0,98,0.00,,---,0.00,VWS V14.01,2013-01-19 19:41:00,
2013-01-19 11:47:00,31.3,30.8,0.00,WNW,293,0.0,0.0,98,0.00,,---,0.00,VWS V14.01,2013-01-19 19:47:00,
2013-01-19 11:52:00,31.5,31.0,0.00,WNW,293,0.0,0.0,98,0.00,,---,0.00,VWS V14.01,2013-01-19 19:52:00,
2013-01-19 11:57:00,31.6,31.1,0.00,NE,52,0.0,0.0,98,0.00,,---,0.00,VWS V14.01,2013-01-19 19:57:00,
2013-01-19 12:02:00,31.6,31.1,0.00,NE,52,0.0,0.0,98,0.00,,---,0.00,VWS V14.01,2013-01-19 20:02:00,
2013-01-19 12:07:00,31.8,31.3,0.00,ENE,57,0.0,0.0,98,0.00,,---,0.00,VWS V14.01,2013-01-19 20:07:00,
2013-01-19 12:12:00,31.8,31.3,0.00,ENE,57,0.0,0.0,98,0.00,,---,0.00,VWS V14.01,2013-01-19 20:12:00,
2013-01-19 12:17:00,32.0,31.5,0.00,ENE,57,0.0,0.0,98,0.00,,---,0.00,VWS V14.01,2013-01-19 20:17:00,
2013-01-19 12:22:00,32.0,31.5,0.00,ENE,57,0.0,0.0,98,0.00,,---,0.00,VWS V14.01,2013-01-19 20:22:00,
2013-01-19 12:27:00,32.2,31.7,0.00,ENE,57,0.0,0.0,98,0.00,,---,0.00,VWS V14.01,2013-01-19 20:27:00,
2013-01-19 12:32:00,32.2,31.7,0.00,ENE,57,0.0,0.0,98,0.00,,---,0.00,VWS V14.01,2013-01-19 20:32:00,
2013-01-19 12:37:00,32.2,31.7,0.00,ENE,57,0.0,0.0,98,0.00,,---,0.00,VWS V14.01,2013-01-19 20:37:00,
2013-01-19 12:42:00,32.2,31.7,0.00,ENE,75,0.0,0.0,98,0.00,,---,0.00,VWS V14.01,2013-01-19 20:42:00,
2013-01-19 12:47:00,32.4,31.9,0.00,ENE,71,0.0,0.0,98,0.00,,---,0.00,VWS V14.01,2013-01-19 20:47:00,
2013-01-19 12:52:00,32.5,32.0,0.00,NNE,24,0.0,0.0,98,0.00,,---,0.00,VWS V14.01,2013-01-19 20:52:00,
2013-01-19 12:58:00,32.5,32.0,0.00,NNE,28,0.0,0.0,98,0.00,,---,0.00,VWS V14.01,2013-01-19 20:58:00,
2013-01-19 13:03:00,32.5,32.0,0.00,NE,37,0.0,0.0,98,0.00,,---,0.00,VWS V14.01,2013-01-19 21:03:00,
2013-01-19 13:08:00,32.5,32.0,0.00,NE,37,0.0,0.0,98,0.00,,---,0.00,VWS V14.01,2013-01-19 21:08:00,
2013-01-19 13:13:00,32.5,32.0,0.00,NE,36,0.0,0.0,98,0.00,,---,0.00,VWS V14.01,2013-01-19 21:13:00,
2013-01-19 13:18:00,32.7,32.2,0.00,ENE,64,0.0,0.0,98,0.00,,---,0.00,VWS V14.01,2013-01-19 21:18:00,
2013-01-19 13:23:00,32.9,32.4,0.00,ENE,64,0.0,0.0,98,0.00,,---,0.00,VWS V14.01,2013-01-19 21:23:00,
2013-01-19 13:28:00,32.9,32.4,0.00,ENE,73,0.0,0.0,98,0.00,,---,0.00,VWS V14.01,2013-01-19 21:28:00,
2013-01-19 13:33:00,33.1,32.6,0.00,ENE,73,0.0,0.0,98,0.00,,---,0.00,VWS V14.01,2013-01-19 21:33:00,
2013-01-19 13:39:00,33.1,32.6,0.00,NNW,327,0.0,0.0,98,0.00,,---,0.00,VWS V14.01,2013-01-19 21:39:00,
2013-01-19 13:44:00,33.1,32.6,0.00,NNW,327,0.0,0.0,98,0.00,,---,0.00,VWS V14.01,2013-01-19 21:44:00,
2013-01-19 13:49:00,33.3,32.8,0.00,East,93,0.0,0.0,98,0.00,,---,0.00,VWS V14.01,2013-01-19 21:49:00,
2013-01-19 13:54:00,33.3,32.8,0.00,North,4,0.0,0.0,98,0.00,,---,0.00,VWS V14.01,2013-01-19 21:54:00,
2013-01-19 13:59:00,33.3,32.8,0.00,North,3,0.0,0.0,98,0.00,,---,0.00,VWS V14.01,2013-01-19 21:59:00,
2013-01-19 14:05:00,33.4,32.9,0.00,NE,51,0.0,0.0,98,0.00,,---,0.00,VWS V14.01,2013-01-19 22:05:00,
2013-01-19 14:10:00,33.4,32.9,0.00,North,6,0.0,0.0,98,0.00,,---,0.00,VWS V14.01,2013-01-19 22:10:00,
2013-01-19 14:15:00,33.4,32.9,0.00,North,6,0.0,0.0,98,0.00,,---,0.00,VWS V14.01,2013-01-19 22:15:00,
2013-01-19 14:20:00,33.6,33.1,0.00,NNE,22,0.0,0.0,98,0.00,,---,0.00,VWS V14.01,2013-01-19 22:20:00,
2013-01-19 14:25:00,33.6,33.1,0.00,NNE,22,0.0,0.0,98,0.00,,---,0.00,VWS V14.01,2013-01-19 22:25:00,
2013-01-19 14:30:00,33.6,33.1,0.00,NNE,22,0.0,0.0,98,0.00,,---,0.00,VWS V14.01,2013-01-19 22:30:00,
2013-01-19 14:36:00,33.6,33.1,0.00,NNE,22,0.0,0.0,98,0.00,,---,0.00,VWS V14.01,2013-01-19 22:36:00,
2013-01-19 14:41:00,33.8,33.3,0.00,NNW,332,0.0,0.0,98,0.00,,---,0.00,VWS V14.01,2013-01-19 22:41:00,
2013-01-19 14:46:00,33.8,33.3,0.00,East,83,3.1,3.1,98,0.00,,---,0.00,VWS V14.01,2013-01-19 22:46:00,
2013-01-19 14:51:00,33.8,33.3,0.00,East,83,0.0,0.0,98,0.00,,---,0.00,VWS V14.01,2013-01-19 22:51:00,
2013-01-19 14:56:00,33.8,33.3,0.00,East,83,0.0,0.0,98,0.00,,---,0.00,VWS V14.01,2013-01-19 22:56:00,
2013-01-19 15:01:00,33.8,33.3,0.00,East,83,0.0,0.0,98,0.00,,---,0.00,VWS V14.01,2013-01-19 23:01:00,
2013-01-19 15:06:00,33.8,33.3,0.00,ENE,69,0.0,0.0,98,0.00,,---,0.00,VWS V14.01,2013-01-19 23:06:00,
2013-01-19 15:11:00,34.0,33.5,0.00,ENE,69,0.0,0.0,98,0.00,,---,0.00,VWS V14.01,2013-01-19 23:11:00,
2013-01-19 15:17:00,34.0,33.5,0.00,ENE,68,0.0,0.0,98,0.00,,---,0.00,VWS V14.01,2013-01-19 23:17:00,
2013-01-19 15:22:00,34.0,33.5,0.00,ENE,69,0.0,0.0,98,0.00,,---,0.00,VWS V14.01,2013-01-19 23:22:00,
2013-01-19 15:27:00,34.0,33.5,0.00,ENE,68,0.0,0.0,98,0.00,,---,0.00,VWS V14.01,2013-01-19 23:27:00,
2013-01-19 15:32:00,34.0,33.5,0.00,ENE,69,0.0,0.0,98,0.00,,---,0.00,VWS V14.01,2013-01-19 23:32:00,
2013-01-19 15:37:00,34.2,33.7,0.00,ENE,69,0.0,0.0,98,0.00,,---,0.00,VWS V14.01,2013-01-19 23:37:00,
2013-01-19 15:42:00,34.2,33.7,0.00,ENE,68,0.0,0.0,98,0.00,,---,0.00,VWS V14.01,2013-01-19 23:42:00,
2013-01-19 15:47:00,34.2,33.7,0.00,ENE,69,0.0,0.0,98,0.00,,---,0.00,VWS V14.01,2013-01-19 23:47:00,
2013-01-19 15:53:00,34.2,33.7,0.00,ENE,69,0.0,0.0,98,0.00,,---,0.00,VWS V14.01,2013-01-19 23:53:00,
2013-01-19 15:58:00,34.2,33.7,0.00,ENE,68,0.0,0.0,98,0.00,,---,0.00,VWS V14.01,2013-01-19 23:58:00,
2013-01-19 16:03:00,34.2,33.7,0.00,ENE,68,0.0,0.0,98,0.00,,---,0.00,VWS V14.01,2013-01-20 00:03:00,
2013-01-19 16:08:00,34.2,33.7,0.00,ENE,69,0.0,0.0,98,0.00,,---,0.00,VWS V14.01,2013-01-20 00:08:00,
2013-01-19 16:13:00,34.2,33.7,0.00,ENE,69,0.0,0.0,98,0.00,,---,0.00,VWS V14.01,2013-01-20 00:13:00,
2013-01-19 16:18:00,34.2,33.7,0.00,ENE,69,0.0,0.0,98,0.00,,---,0.00,VWS V14.01,2013-01-20 00:18:00,
2013-01-19 16:23:00,34.2,33.7,0.00,ENE,68,0.0,0.0,98,0.00,,---,0.00,VWS V14.01,2013-01-20 00:23:00,
2013-01-19 16:28:00,34.2,33.7,0.00,NE,41,0.0,0.0,98,0.00,,---,0.00,VWS V14.01,2013-01-20 00:28:00,
2013-01-19 16:33:00,34.2,33.7,0.00,East,93,0.0,0.0,98,0.00,,---,0.00,VWS V14.01,2013-01-20 00:33:00,
2013-01-19 16:38:00,34.2,33.7,0.00,NNE,25,0.0,0.0,98,0.00,,---,0.00,VWS V14.01,2013-01-20 00:38:00,
2013-01-19 16:43:00,34.2,33.7,0.00,NE,43,0.0,0.0,98,0.00,,---,0.00,VWS V14.01,2013-01-20 00:43:00,
2013-01-19 16:48:00,34.2,33.7,0.00,NE,56,0.0,0.0,98,0.00,,---,0.00,VWS V14.01,2013-01-20 00:48:00,
2013-01-19 16:53:00,34.2,33.7,0.00,ENE,69,0.0,0.0,98,0.00,,---,0.00,VWS V14.01,2013-01-20 00:53:00,
2013-01-19 16:58:00,34.2,33.7,0.00,ENE,69,0.0,0.0,98,0.00,,---,0.00,VWS V14.01,2013-01-20 00:58:00,
2013-01-19 17:04:00,34.2,33.7,0.00,ENE,71,4.0,4.0,98,0.00,,---,0.00,VWS V14.01,2013-01-20 01:04:00,
2013-01-19 17:09:00,34.2,33.7,0.00,ENE,69,0.0,0.0,98,0.00,,---,0.00,VWS V14.01,2013-01-20 01:09:00,
2013-01-19 17:14:00,34.2,33.7,0.00,ENE,69,0.0,0.0,98,0.00,,---,0.00,VWS V14.01,2013-01-20 01:14:00,
2013-01-19 17:19:00,34.2,33.7,0.00,ENE,69,0.0,0.0,98,0.00,,---,0.00,VWS V14.01,2013-01-20 01:19:00,
2013-01-19 17:24:00,34.0,33.5,0.00,ENE,69,0.0,0.0,98,0.00,,---,0.00,VWS V14.01,2013-01-20 01:24:00,
2013-01-19 17:29:00,34.0,33.5,0.00,ENE,69,0.0,0.0,98,0.00,,---,0.00,VWS V14.01,2013-01-20 01:29:00,
2013-01-19 17:34:00,34.0,33.5,0.00,NNE,27,0.0,0.0,98,0.00,,---,0.00,VWS V14.01,2013-01-20 01:34:00,
2013-01-19 17:39:00,34.0,33.5,0.00,NE,50,2.7,2.7,98,0.00,,---,0.00,VWS V14.01,2013-01-20 01:39:00,
2013-01-19 17:45:00,34.0,33.5,0.00,NE,50,2.7,2.7,98,0.00,,---,0.00,VWS V14.01,2013-01-20 01:45:00,
2013-01-19 17:50:00,33.8,33.3,0.00,ENE,65,0.0,0.0,98,0.00,,---,0.00,VWS V14.01,2013-01-20 01:50:00,
2013-01-19 17:55:00,33.8,33.3,0.00,ENE,65,0.0,0.0,98,0.00,,---,0.00,VWS V14.01,2013-01-20 01:55:00,
2013-01-19 18:00:00,33.8,33.3,0.00,ENE,70,0.0,0.0,98,0.00,,---,0.00,VWS V14.01,2013-01-20 02:00:00,
2013-01-19 18:05:00,33.8,33.3,0.00,ENE,70,0.0,0.0,98,0.00,,---,0.00,VWS V14.01,2013-01-20 02:05:00,
2013-01-19 18:10:00,33.6,33.1,0.00,ENE,76,3.1,3.1,98,0.00,,---,0.00,VWS V14.01,2013-01-20 02:10:00,
2013-01-19 18:15:00,33.6,33.1,0.00,East,89,0.0,0.0,98,0.00,,---,0.00,VWS V14.01,2013-01-20 02:15:00,
2013-01-19 18:20:00,33.6,33.1,0.00,NE,37,0.0,0.0,98,0.00,,---,0.00,VWS V14.01,2013-01-20 02:20:00,
2013-01-19 18:25:00,33.4,32.9,30.29,East,81,0.0,0.0,98,0.00,,---,0.00,VWS V14.01,2013-01-20 02:25:00,
2013-01-19 18:30:00,33.3,32.8,30.29,East,81,0.0,0.0,98,0.00,,---,0.00,VWS V14.01,2013-01-20 02:30:00,
2013-01-19 18:35:00,33.3,32.8,30.29,ENE,75,0.0,0.0,98,0.00,,---,0.00,VWS V14.01,2013-01-20 02:35:00,
2013-01-19 18:40:00,33.3,32.8,30.29,ENE,73,0.0,0.0,98,0.00,,---,0.00,VWS V14.01,2013-01-20 02:40:00,
2013-01-19 18:46:00,33.1,32.6,30.29,NE,44,0.0,0.0,98,0.00,,---,0.00,VWS V14.01,2013-01-20 02:46:00,
2013-01-19 18:51:00,33.1,32.6,30.29,NE,44,0.0,0.0,98,0.00,,---,0.00,VWS V14.01,2013-01-20 02:51:00,
2013-01-19 18:57:00,33.1,32.6,30.29,NE,44,0.0,0.0,98,0.00,,---,0.00,VWS V14.01,2013-01-20 02:57:00,
2013-01-19 19:02:00,33.1,32.6,30.29,ENE,70,0.0,0.0,98,0.00,,---,0.00,VWS V14.01,2013-01-20 03:02:00,
2013-01-19 19:07:00,33.1,32.6,30.29,NE,35,0.0,0.0,98,0.00,,---,0.00,VWS V14.01,2013-01-20 03:07:00,
2013-01-19 19:12:00,33.1,32.6,30.29,NE,35,0.0,0.0,98,0.00,,---,0.00,VWS V14.01,2013-01-20 03:12:00,
2013-01-19 19:17:00,33.1,32.6,30.32,NE,40,0.0,0.0,98,0.00,,---,0.00,VWS V14.01,2013-01-20 03:17:00,
2013-01-19 19:22:00,33.1,32.6,30.32,NE,40,0.0,0.0,98,0.00,,---,0.00,VWS V14.01,2013-01-20 03:22:00,
2013-01-19 19:27:00,33.1,32.6,30.32,NE,41,0.0,0.0,98,0.00,,---,0.00,VWS V14.01,2013-01-20 03:27:00,
2013-01-19 19:32:00,33.1,32.6,30.32,NE,45,0.0,0.0,98,0.00,,---,0.00,VWS V14.01,2013-01-20 03:32:00,
2013-01-19 19:38:00,33.1,32.6,30.32,NE,45,0.0,0.0,98,0.00,,---,0.00,VWS V14.01,2013-01-20 03:38:00,
2013-01-19 19:43:00,33.1,32.6,30.32,NE,45,0.0,0.0,98,0.00,,---,0.00,VWS V14.01,2013-01-20 03:43:00,
2013-01-19 19:48:00,33.1,32.6,30.32,NE,45,0.0,0.0,98,0.00,,---,0.00,VWS V14.01,2013-01-20 03:48:00,
2013-01-19 19:53:00,33.1,32.6,30.32,NE,45,0.0,0.0,98,0.00,,---,0.00,VWS V14.01,2013-01-20 03:53:00,
2013-01-19 19:58:00,33.1,32.6,30.32,NE,45,0.0,0.0,98,0.00,,---,0.00,VWS V14.01,2013-01-20 03:58:00,
2013-01-19 20:03:00,33.1,32.6,30.32,NE,45,0.0,0.0,98,0.00,,---,0.00,VWS V14.01,2013-01-20 04:03:00,
2013-01-19 20:08:00,33.1,32.6,30.32,NE,45,0.0,0.0,98,0.00,,---,0.00,VWS V14.01,2013-01-20 04:08:00,
2013-01-19 20:13:00,33.1,32.6,30.32,NE,45,0.0,0.0,98,0.00,,---,0.00,VWS V14.01,2013-01-20 04:13:00,
2013-01-19 20:18:00,32.9,32.4,30.32,NE,45,0.0,0.0,98,0.00,,---,0.00,VWS V14.01,2013-01-20 04:18:00,
2013-01-19 20:23:00,32.9,32.4,30.32,NE,45,0.0,0.0,98,0.00,,---,0.00,VWS V14.01,2013-01-20 04:23:00,
2013-01-19 20:28:00,32.9,32.4,30.32,NE,45,0.0,0.0,98,0.00,,---,0.00,VWS V14.01,2013-01-20 04:28:00,
2013-01-19 20:33:00,32.9,32.4,30.32,NE,45,0.0,0.0,98,0.00,,---,0.00,VWS V14.01,2013-01-20 04:33:00,
2013-01-19 20:38:00,32.9,32.4,30.32,NE,45,0.0,0.0,98,0.00,,---,0.00,VWS V14.01,2013-01-20 04:38:00,
2013-01-19 20:43:00,33.1,32.6,30.32,NE,45,0.0,0.0,98,0.00,,---,0.00,VWS V14.01,2013-01-20 04:43:00,
2013-01-19 20:48:00,33.1,32.6,30.32,NE,45,0.0,0.0,98,0.00,,---,0.00,VWS V14.01,2013-01-20 04:48:00,
2013-01-19 20:54:00,32.9,32.4,30.32,NE,45,0.0,0.0,98,0.00,,---,0.00,VWS V14.01,2013-01-20 04:54:00,
2013-01-19 20:59:00,32.9,32.4,30.32,NE,45,0.0,0.0,98,0.00,,---,0.00,VWS V14.01,2013-01-20 04:59:00,
2013-01-19 21:00:00,32.9,32.4,30.32,NE,45,0.0,0.0,98,0.00,,---,0.00,VWS V14.01,2013-01-20 05:00:00,
2013-01-19 21:01:00,32.9,32.4,30.32,NE,45,0.0,0.0,98,0.00,,---,0.00,VWS V14.01,2013-01-20 05:01:00,
2013-01-19 21:06:00,32.9,32.4,30.32,NE,45,0.0,0.0,98,0.00,,---,0.00,VWS V14.01,2013-01-20 05:06:00,
2013-01-19 21:11:00,32.9,32.4,30.32,NE,45,0.0,0.0,98,0.00,,---,0.00,VWS V14.01,2013-01-20 05:11:00,
2013-01-19 21:16:00,32.9,32.4,30.32,NE,45,0.0,0.0,98,0.00,,---,0.00,VWS V14.01,2013-01-20 05:16:00,
2013-01-19 21:21:00,32.9,32.4,30.32,NE,45,0.0,0.0,98,0.00,,---,0.00,VWS V14.01,2013-01-20 05:21:00,
2013-01-19 21:26:00,32.9,32.4,30.32,NE,45,0.0,0.0,98,0.00,,---,0.00,VWS V14.01,2013-01-20 05:26:00,
2013-01-19 21:31:00,32.9,32.4,30.32,NE,45,0.0,0.0,98,0.00,,---,0.00,VWS V14.01,2013-01-20 05:31:00,
2013-01-19 21:36:00,32.9,32.4,30.32,NE,45,0.0,0.0,98,0.00,,---,0.00,VWS V14.01,2013-01-20 05:36:00,
2013-01-19 21:41:00,32.9,32.4,30.32,NE,45,0.0,0.0,98,0.00,,---,0.00,VWS V14.01,2013-01-20 05:41:00,
2013-01-19 21:46:00,32.9,32.4,30.32,NE,48,0.0,0.0,98,0.00,,---,0.00,VWS V14.01,2013-01-20 05:46:00,
2013-01-19 21:51:00,33.1,32.6,30.32,NE,51,0.0,0.0,98,0.00,,---,0.00,VWS V14.01,2013-01-20 05:51:00,
2013-01-19 21:56:00,33.1,32.6,30.32,East,86,0.0,0.0,98,0.00,,---,0.00,VWS V14.01,2013-01-20 05:56:00,
2013-01-19 22:01:00,33.1,32.6,30.32,East,86,0.0,0.0,98,0.00,,---,0.00,VWS V14.01,2013-01-20 06:01:00,
2013-01-19 22:06:00,33.1,32.6,30.32,East,86,0.0,0.0,98,0.00,,---,0.00,VWS V14.01,2013-01-20 06:06:00,
2013-01-19 22:11:00,33.1,32.6,30.32,East,86,0.0,0.0,98,0.00,,---,0.00,VWS V14.01,2013-01-20 06:11:00,
2013-01-19 22:16:00,33.1,32.6,30.32,East,86,0.0,0.0,98,0.00,,---,0.00,VWS V14.01,2013-01-20 06:16:00,
2013-01-19 22:21:00,33.1,32.6,30.32,East,86,0.0,0.0,98,0.00,,---,0.00,VWS V14.01,2013-01-20 06:21:00,
2013-01-19 22:26:00,33.1,32.6,30.32,East,88,0.0,0.0,98,0.00,,---,0.00,VWS V14.01,2013-01-20 06:26:00,
2013-01-19 22:31:00,33.1,32.6,30.32,East,88,0.0,0.0,98,0.00,,---,0.00,VWS V14.01,2013-01-20 06:31:00,
2013-01-19 22:36:00,33.1,32.6,30.32,East,88,0.0,0.0,98,0.00,,---,0.00,VWS V14.01,2013-01-20 06:36:00,
2013-01-19 22:41:00,33.1,32.6,30.32,East,88,0.0,0.0,98,0.00,,---,0.00,VWS V14.01,2013-01-20 06:41:00,
2013-01-19 22:46:00,33.1,32.6,30.32,East,88,0.0,0.0,98,0.00,,---,0.00,VWS V14.01,2013-01-20 06:46:00,
2013-01-19 22:51:00,32.9,32.4,30.32,East,88,0.0,0.0,98,0.00,,---,0.00,VWS V14.01,2013-01-20 06:51:00,
2013-01-19 22:56:00,32.7,32.2,30.32,East,88,0.0,0.0,98,0.00,,---,0.00,VWS V14.01,2013-01-20 06:56:00,
2013-01-19 23:01:00,32.7,32.2,30.32,East,88,0.0,0.0,98,0.00,,---,0.00,VWS V14.01,2013-01-20 07:01:00,
2013-01-19 23:06:00,32.7,32.2,30.32,East,88,0.0,0.0,98,0.00,,---,0.00,VWS V14.01,2013-01-20 07:06:00,
2013-01-19 23:11:00,32.5,32.0,30.32,East,88,0.0,0.0,98,0.00,,---,0.00,VWS V14.01,2013-01-20 07:11:00,
2013-01-19 23:16:00,32.5,32.0,30.32,East,88,0.0,0.0,98,0.00,,---,0.00,VWS V14.01,2013-01-20 07:16:00,
2013-01-19 23:21:00,32.5,32.0,30.32,East,88,0.0,0.0,98,0.00,,---,0.00,VWS V14.01,2013-01-20 07:21:00,
2013-01-19 23:26:00,32.5,32.0,30.32,East,88,0.0,0.0,98,0.00,,---,0.00,VWS V14.01,2013-01-20 07:26:00,
2013-01-19 23:31:00,32.5,32.0,30.32,East,88,0.0,0.0,98,0.00,,---,0.00,VWS V14.01,2013-01-20 07:31:00,
2013-01-19 23:36:00,32.5,32.0,30.32,East,88,0.0,0.0,98,0.00,,---,0.00,VWS V14.01,2013-01-20 07:36:00,
2013-01-19 23:41:00,32.5,32.0,30.32,East,88,0.0,0.0,98,0.00,,---,0.00,VWS V14.01,2013-01-20 07:41:00,
2013-01-19 23:46:00,32.5,32.0,30.32,East,88,0.0,0.0,98,0.00,,---,0.00,VWS V14.01,2013-01-20 07:46:00,
2013-01-19 23:51:00,32.5,32.0,30.32,East,88,0.0,0.0,98,0.00,,---,0.00,VWS V14.01,2013-01-20 07:51:00,
2013-01-19 23:56:00,32.5,32.0,30.32,East,88,0.0,0.0,98,0.00,,---,0.00,VWS V14.01,2013-01-20 07:56:00,